THOR ABLESTAR DEB, 225

Orbit data source: Space-Track

THOR ABLESTAR DEB, 225 is space debris in LEO originally from a launch on Thu, 29 Jun 1961 UTC launched from the Air Force Eastern Test Range (AFETR). Debris objects in space refer to the collection of defunct objects orbiting the Earth. Examples of debris include non-operational satellites, rocket bodies, and fragments generated from explosions, collisions, or faulty payload assembly.

Loading next visibility...
Identifier
225, 1961-015BM
Orbit
LEO
Country
Flag of USUS
Related business
Manufacturer
Unknown
Mission
Spacecraft
Bus & Motor
Unknown
Mass
Unknown
Launch date (UTC)
1961-06-29 (65 years ago)
Launch vehicle
Unknown
Launch site
Air Force Eastern Test Range (AFETR)
Object type
Payload
Rocket body
Debris
Shape & HBR
Unknown shape, 0.1 m
Radar Cross Section
Small (<0.1 m²)

Expand to show TLE details & history
Last TLE update: 10 hours ago

TLE from 10 hours ago
0 THOR ABLESTAR DEB
1   225U 61015BM  26121.96718106  .00001016  00000-0  33977-3 0  9992
2   225  66.7978   9.4682 0106268 253.0106 105.9330 14.38391885351081
Epoch: 2026-05-01T23:12Z
TLE epoch observation values (Epoch: 2026-05-01T23:12:44.443Z)
Latitude
-0.00002°
Longitude
161.39117°
Altitude
787.519 km
Speed
7.449 km/s
True Right ascension
00h 37m 52s
True Declination
0° 00' 00"
Sunlit
Object was in daylight at epoch
Visualization orbit readout
Latitude
Unknown
Longitude
Unknown
Altitude
Unknown
Speed
Unknown
Apparent Right ascension
Unknown
Apparent Declination
Unknown
Sunlit
N/A
Visualization observer readout
Local Sidereal Time
16:48:26
Azimuth
Unknown
Elevation
Unknown
Doppler factor
Unknown
Orbital elements
Apogee altitude
838.052 km
Perigee altitude
686.295 km
Semi-major axis
7,140.31 km
Eccentricity
0.01063
Inclination
66.7978°
RAAN
9.4682°
Arg. of periapsis
253.0106°
True anomaly
107.09962°
Mean anomaly
105.933°
Eccentric anomaly
106.51675°
Mean motion
3.59722 °/min
Orbital period
100.08 mins
BSTAR
0.00033977
Loading maneuver chart data...
Computing Atmospheric mass density...
Loading historical data...
Loading historical data...
Loading historical data...
Loading historical data...
Loading historical data...
Loading historical data...
Loading historical data...

Documentation

Showing up to 5 results
|